Location: Bouysse
(45.3674°N, 1.8947°E)
Time: 07:33:53
(UTC+00:00)

STARLINK-48 - Pass Details

Date: 07 June 2020
Orbit: 505 x 506 km, 53.0° (Epoch: 04 July)

Event Time Altitude Azimuth Distance (km) Brightness Sun altitude
Exits shadow 01:53:44 24° 257° (WSW) 1,076 4.7 -16.4°
Maximum altitude 01:55:54 63° 331° (NNW) 569 3.8 -16.2°
Drops below altitude 10° 01:59:46 10° 54° (NE) 1,723 7.2 -15.8°
Sets 02:01:59 0° 58° (ENE) 2,610 8.3 -15.6°
